CZ-6A DEB

Satellite information

Favourite Embed

Satellite Type and Status

DEBRISIN ORBIT

Key statistics

Satellite CZ-6A DEB at a glance.

Uptime

1129

Days in orbit

Revolutions

≈ 14.7

Per day

Orbit

SSO

Sun Synchronous Orbit

Inclination

98.6

Latest

Satellite identification and parameters

Extended collection of information and parameters for CZ-6A DEB.

Object identification

Identified? True

Debris? True

Object name: CZ-6A DEB

International designator: 2022-151WV

Object number (NORAD): 55228

Object ID (CCSDS): 55228

Country: PEOPLES REPUBLIC OF CHINA (PRC)

Current information (Y/N): Y

RCS size: SMALL

Orbital parameters

Period: 97.88 minutes

Inclination: 98.6405 deg

SMA: 7035.417 km

Apoapsis: 707.001 km

Periapsis: 607.564 km

RAAN: 40.2461 deg

Eccentricy: 0.00706688

Argument of periapsis: 138.6513 deg

Mean anomaly: 222.0072 deg

Mean motion: 14.71187297 rev/day

Mean motion (dot): 0.00025319 rev/day2

B* drag term: 0.0039482765 1/REarth

Two-line elements (TLE)

Creation date: Dec. 12, 2025, 10:14 a.m.

Reference frame: TEME

Reference center: EARTH

Epoch: Dec. 12, 2025, 3:05 a.m. UTC

TLE line 0: 0 CZ-6A DEB

TLE line 1: 1 55228U 22151WV 25346.12910498 .00025319 00000-0 39483-2 0 9996

TLE line 2: 2 55228 98.6405 40.2461 0070669 138.6513 222.0072 14.71187297157586

Live tracking on map

Real-time ground track for satellite CZ-6A DEB.

In-orbit conjunctions

A list of the most updated potential collisions computed for object CZ-6A DEB.

Target Orbit TCA Probability of collision Miss distance Type
FENGYUN 1C DEB SSO 2025-12-02 10:59:58 0.0001997861 71.0 (m) DEBRIS
NOAA 16 DEB SSO 2024-11-12 00:12:37 0.000466227 289.0 (m) DEBRIS

Associated space launch

Chinese satellite reported for atmospheric/ocean/environmental/spatial parameter research purposes, details TBD.

CZ-6A DEB was lifted into orbit during the mission ‘Long March 6A | Yunhai 3’, on board a Long March 6A space rocket.

The launch took place on Nov. 11, 2022, 10:52 p.m. from Launch Complex 9A.

For more information about the launch, click the button.

Launch to space Long March 6A | Yunhai 3
Long March 6A | Yunhai 3

Agency: N/A

Status: Launch Successful

Launch date: Nov. 11, 2022, 10:52 p.m. UTC

Rocket: Long March 6A

Launch pad: Launch Complex 9A

Location: Taiyuan Satellite Launch Center, People's Republic of China

...

Latest news about this satellite

There are no fresh news available about this satellite. Check back as we update our databases every day.


Newsletter sign-up

Weekly statistics, charts and insights to help you stay on top of the space industry.